GFSMW_250_spd_057.txt.gz
Wind_Speed
39 36 28 29 31 30 28 25 30 28 36 37 45 44 45 43 45 49 50 56 56 58 60 64 68 71 72 72 73 68 66 65 68 70 72 74 76 79 82 84 86 85 84
41 44 38 34 33 29 28 26 30 31 31 36 40 44 48 49 49 48 49 53 53 56 60 64 66 67 69 67 66 63 65 69 72 74 75 76 81 83 83 83 83 85 88
34 34 41 38 37 36 34 37 38 41 38 44 41 45 49 46 48 48 50 53 57 58 59 61 62 64 62 61 61 65 69 72 73 75 79 80 78 78 83 87 88 89 91
24 23 29 33 38 39 40 42 38 39 39 35 31 32 34 42 43 45 46 53 57 57 61 58 56 56 59 62 67 70 71 74 76 77 77 77 81 84 85 88 91 91 94
25 30 36 36 39 39 38 38 40 42 43 44 45 48 53 53 54 51 55 60 59 56 51 53 56 60 65 69 73 73 73 74 75 75 77 81 86 90 91 90 91 94 98
23 25 26 28 31 34 35 35 42 43 45 49 52 53 52 53 53 53 54 49 49 49 53 57 62 67 73 76 75 75 75 73 72 77 83 89 92 93 93 93 99 101 105
18 21 24 27 33 38 39 38 37 40 42 44 46 46 45 41 38 41 43 46 49 53 57 62 68 73 74 74 75 74 74 75 77 83 89 92 93 94 97 100 104 108 112
23 24 24 27 29 32 35 37 39 42 44 42 40 36 33 37 38 38 44 52 54 58 64 68 68 71 74 74 73 75 78 82 86 88 91 93 96 99 102 105 110 114 116
23 22 25 28 30 34 39 41 44 42 36 34 33 35 34 37 39 44 53 58 62 64 66 66 73 75 73 73 77 77 82 87 90 92 94 97 100 103 106 112 117 118 121
29 29 32 35 35 37 39 38 37 35 33 33 34 33 34 37 44 52 57 64 63 65 65 74 77 78 77 76 80 81 87 90 93 96 98 102 104 107 112 117 120 124 123
33 36 38 37 38 35 33 32 33 33 34 34 32 33 36 39 45 53 60 66 65 68 73 78 79 82 83 83 84 86 90 93 96 99 102 105 108 112 117 120 123 124 122
38 39 41 41 35 31 31 32 33 35 35 33 32 35 35 43 48 56 64 63 66 73 79 79 83 86 87 90 91 91 93 97 100 103 105 107 112 118 119 123 125 124 121
43 43 39 34 33 32 32 32 35 37 36 37 38 38 43 50 55 59 61 65 73 77 80 83 87 89 91 91 93 94 99 101 103 106 107 113 118 119 122 125 125 123 117
34 35 35 32 33 35 36 37 38 39 39 39 40 44 47 54 56 59 64 71 74 78 81 86 89 90 93 96 98 99 100 103 106 108 113 118 120 121 126 126 123 120 112
36 38 39 37 36 39 40 38 36 39 43 42 45 49 52 55 60 65 68 71 75 80 85 87 89 90 94 98 100 102 105 106 109 114 118 120 119 125 127 122 121 115 107
37 38 39 41 43 43 40 40 41 45 45 47 49 53 56 60 64 66 69 74 78 82 85 88 90 92 94 97 99 102 104 108 114 117 118 119 124 127 123 120 117 110 100
37 37 38 40 42 42 41 38 40 43 46 49 52 55 59 63 66 70 74 76 80 84 85 88 91 96 98 100 104 106 108 114 118 118 119 122 127 123 119 116 111 101 94
38 38 39 39 40 40 41 41 43 45 48 51 55 59 63 66 70 73 76 79 82 84 86 90 94 96 101 104 106 110 114 117 119 119 122 126 124 120 115 109 103 95 89
39 38 38 40 42 43 44 45 48 50 53 57 61 63 66 69 72 76 79 81 83 85 90 94 97 100 105 108 110 116 117 118 118 122 126 124 120 115 108 101 96 89 83
41 41 40 40 42 45 46 48 51 54 58 60 63 66 70 73 76 77 79 82 85 90 93 96 101 105 107 111 115 117 117 118 121 123 124 122 115 107 102 96 90 84 79
40 42 43 45 47 48 50 52 56 58 61 64 67 70 73 74 77 79 82 86 89 93 96 99 104 107 111 113 115 118 121 123 122 120 119 114 109 101 96 90 85 78 78
46 47 48 49 50 52 55 57 59 61 64 66 69 71 73 76 79 83 87 90 93 96 100 102 105 110 113 115 117 122 124 123 119 115 110 107 103 96 91 85 80 76 74
46 48 50 51 53 54 55 57 60 63 66 69 71 73 75 78 82 87 90 94 98 100 103 104 107 110 113 115 120 122 123 120 116 111 104 100 97 91 85 81 77 73 71
50 51 53 54 55 56 59 61 64 66 69 71 73 76 79 83 87 91 95 98 100 103 105 108 110 109 114 118 117 117 115 113 111 107 101 94 90 86 81 78 74 70 67
55 55 55 57 59 61 63 65 68 70 73 75 78 80 84 89 93 94 96 99 104 106 107 109 113 115 115 114 112 110 106 103 100 97 96 90 84 80 77 74 71 67 64
55 57 58 59 61 64 67 69 73 76 79 80 81 84 91 92 92 96 101 104 106 108 112 115 117 116 115 111 106 101 100 98 94 90 86 84 80 76 71 69 66 63 60

GFSMW_250_spd_060.txt.gz
Wind_Speed
31 31 26 30 33 30 27 28 28 37 48 46 44 52 53 67 55 72 68 59 61 62 66 66 60 66 68 70 65 67 68 69 70 69 66 69 73 75 76 79 81 81 81
37 34 34 26 29 32 32 32 31 31 30 32 35 42 48 47 43 50 51 53 57 62 62 60 62 64 63 63 68 70 70 65 64 65 70 75 76 78 80 82 82 81 83
43 39 42 39 30 32 34 33 32 32 30 34 34 36 39 42 47 49 49 51 50 52 58 59 59 60 63 66 69 67 62 62 66 71 77 78 79 80 80 81 83 85 89
42 30 34 39 42 42 37 38 38 36 36 39 40 42 42 46 48 44 44 46 48 54 59 56 60 64 66 64 64 60 64 67 70 76 79 80 80 82 82 83 84 91 96
22 27 29 30 35 36 36 39 43 42 43 43 43 46 48 46 46 51 53 54 55 58 59 60 63 64 62 60 59 65 68 73 77 78 79 80 80 81 84 89 95 95 95
21 23 26 28 30 32 36 37 39 42 40 40 41 44 45 47 50 53 52 52 54 56 57 58 60 59 58 61 65 69 73 75 79 80 81 82 82 84 87 92 96 99 100
19 20 22 25 27 30 34 36 37 36 37 41 44 44 44 46 47 47 47 48 49 49 49 55 57 60 64 69 73 73 72 81 85 84 84 86 88 90 94 97 99 102 103
23 23 26 31 32 33 35 36 37 38 41 41 42 45 46 45 42 39 39 48 49 46 48 55 61 63 69 74 74 77 80 84 88 86 87 89 92 95 98 101 102 103 106
22 25 27 30 32 33 34 36 37 38 41 45 45 44 36 39 42 40 44 48 48 48 58 64 66 68 71 74 76 80 85 89 88 88 90 93 97 100 102 103 105 107 109
23 25 28 29 31 32 35 37 38 40 42 40 39 38 38 40 42 45 46 43 49 57 62 65 69 72 74 78 80 86 89 89 91 92 94 97 100 102 104 106 109 112 115
26 28 29 32 34 35 36 38 40 38 37 37 37 39 40 42 43 46 44 47 53 59 65 69 73 76 80 80 84 90 91 93 95 98 100 103 103 105 108 111 113 118 120
31 33 36 37 37 40 41 38 34 35 36 38 39 42 43 44 46 46 47 49 57 62 64 75 72 74 78 85 92 94 94 95 98 101 103 106 107 110 113 115 119 122 121
33 34 38 41 42 38 36 36 37 38 39 39 42 43 46 47 47 48 50 55 60 64 69 67 78 82 85 88 91 95 96 98 100 104 106 108 111 115 116 120 122 121 122
35 36 38 37 35 36 39 41 42 43 42 44 46 47 48 50 51 53 56 59 63 68 73 75 80 85 88 91 93 96 98 100 102 105 107 110 114 116 120 122 121 122 125
39 39 39 40 39 39 41 42 43 45 45 44 44 44 50 52 53 58 60 62 67 71 76 79 81 85 89 93 95 97 100 102 105 108 110 113 115 120 121 122 123 125 124
40 42 41 41 42 42 43 44 46 43 40 47 49 50 52 54 57 60 63 67 71 74 77 79 83 88 92 96 98 100 102 105 107 111 115 115 118 121 122 123 125 124 123
42 44 44 44 44 45 45 45 46 45 45 44 44 48 52 56 60 63 66 70 73 75 78 82 86 89 93 96 98 102 105 107 110 114 116 119 122 121 125 125 121 121 119
46 46 47 45 44 45 44 45 46 46 47 48 50 51 54 57 61 65 68 71 74 78 82 86 88 91 94 97 100 104 106 109 112 115 118 120 121 126 125 122 120 118 113
43 43 44 45 45 46 45 46 46 48 51 53 55 57 60 62 64 67 70 74 78 81 83 86 89 91 96 100 104 107 107 109 113 117 116 120 124 127 123 122 117 112 109
41 43 45 46 45 45 46 47 48 50 52 55 57 60 62 65 67 70 73 75 79 81 84 87 90 93 97 101 105 107 109 112 112 113 119 124 124 123 122 115 110 104 100
42 44 46 47 46 47 49 51 52 53 55 57 59 60 62 65 68 72 75 78 81 84 86 89 91 96 100 101 106 111 112 112 113 119 121 122 121 117 113 109 103 98 92
45 46 47 49 49 51 52 52 54 56 58 59 61 63 66 69 72 75 79 83 85 87 89 91 97 101 101 105 110 111 114 118 121 121 120 118 117 110 105 102 97 91 85
49 49 50 51 51 53 55 56 59 62 63 63 64 67 69 70 72 76 81 84 87 89 92 96 99 100 104 106 108 111 115 120 124 125 121 115 108 103 98 94 90 86 82
51 54 54 54 55 57 60 64 66 65 66 66 67 68 70 75 79 81 85 89 92 94 95 97 100 102 103 107 110 113 117 120 120 117 113 109 103 97 91 88 84 81 77
54 56 59 59 60 59 59 63 67 71 71 68 71 71 75 79 85 88 91 92 92 94 96 98 101 102 109 109 113 115 115 114 110 105 102 99 95 90 87 83 79 75 73
57 59 61 59 62 66 67 69 71 71 68 69 73 76 82 87 92 95 93 94 93 93 98 101 104 108 108 112 113 112 112 108 104 100 95 91 87 85 81 79 75 71 68

GFSMW_250_spd_063.txt.gz
Wind_Speed
32 31 30 26 32 37 35 39 43 45 48 51 47 42 38 45 61 55 63 55 64 67 73 70 70 63 61 66 72 74 75 69 64 66 72 74 72 73 72 73 76 78 80
38 34 31 27 32 32 34 32 37 33 34 38 50 52 47 46 42 46 45 46 43 51 56 63 64 69 58 62 67 65 66 66 67 71 75 74 71 66 71 78 78 81 84
44 35 36 33 30 30 31 32 33 34 31 31 31 35 36 39 40 42 43 46 52 52 56 60 58 57 59 65 66 65 68 71 72 71 73 70 71 75 76 73 80 84 85
44 40 41 39 39 31 37 35 35 32 34 33 36 35 38 41 43 44 48 49 51 53 56 59 65 67 64 67 69 69 70 71 67 71 71 73 76 78 82 88 86 85 90
45 40 47 46 43 43 45 43 41 40 38 42 44 41 38 43 46 49 49 53 57 57 59 59 61 64 65 68 70 68 68 69 70 71 72 78 79 81 86 91 99 100 96
21 26 31 36 39 39 43 45 45 44 44 42 45 47 47 47 49 50 49 51 54 54 56 58 60 62 64 64 64 65 67 71 73 74 76 80 80 86 90 94 95 97 97
22 23 24 26 32 35 34 34 37 38 40 41 42 44 45 45 46 48 49 50 51 53 57 59 60 58 61 62 63 67 71 75 77 80 79 81 85 89 96 95 97 99 101
22 24 25 28 30 32 34 35 36 39 42 43 42 43 45 46 48 48 50 53 55 53 56 56 54 59 58 65 70 72 78 80 81 83 84 87 91 95 97 100 103 103 106
26 28 29 31 33 35 37 39 39 39 40 41 42 45 47 48 49 52 54 52 52 54 58 58 59 59 48 62 72 78 81 82 83 87 88 94 97 101 103 105 106 108 109
29 29 28 31 33 36 36 37 38 38 39 41 45 47 49 48 46 47 50 51 54 56 58 58 61 62 64 71 78 80 81 85 88 90 94 100 102 104 106 108 111 114 116
30 30 30 29 30 32 33 35 38 41 42 45 46 50 44 43 43 46 48 51 56 60 61 63 63 66 70 75 77 81 86 88 90 93 97 102 105 107 109 111 114 117 118
33 35 34 35 35 36 37 39 41 44 47 45 43 44 46 48 47 48 50 55 59 63 65 65 67 67 70 76 80 83 87 91 94 97 100 103 107 109 112 114 117 118 121
37 37 37 36 38 38 38 39 40 39 38 40 42 43 47 47 48 49 51 56 60 64 67 68 70 73 74 78 83 89 91 94 97 99 102 105 108 111 114 117 119 121 121
40 41 40 41 39 39 39 38 38 39 40 41 43 45 47 49 50 52 54 57 59 62 66 68 72 76 80 83 85 89 93 95 98 102 104 106 109 112 116 118 120 123 125
44 45 44 45 44 44 42 42 41 41 43 44 44 44 45 47 50 53 55 58 58 61 64 68 72 76 80 84 87 89 92 96 100 102 104 106 109 113 116 118 123 126 126
44 46 45 45 46 46 46 45 44 45 45 46 46 47 50 50 50 52 55 58 62 64 66 69 74 77 80 83 86 91 93 96 99 102 104 106 110 115 115 117 122 125 127
38 39 43 45 45 48 49 49 48 48 47 48 48 48 49 52 52 54 56 58 61 64 67 71 74 77 82 86 88 90 94 98 101 105 107 109 115 117 119 121 121 121 123
35 37 39 44 48 48 46 45 46 48 50 50 49 49 50 52 54 56 59 62 65 67 70 73 76 79 82 87 90 94 97 100 102 105 107 112 115 118 119 122 124 127 127
40 42 45 48 49 48 45 45 47 49 49 48 48 50 52 54 57 59 61 63 66 68 71 74 78 80 81 84 92 98 101 103 104 106 110 112 116 118 122 126 126 128 126
38 45 48 50 50 48 48 47 48 49 50 50 52 54 56 58 60 63 65 67 69 71 75 75 78 82 87 91 97 101 104 105 106 106 109 115 117 119 121 123 125 125 122
40 45 49 52 53 52 51 51 52 53 55 56 57 59 60 62 66 70 71 71 71 71 74 79 83 89 94 99 101 105 109 108 105 108 111 113 115 118 122 124 122 120 115
43 48 49 51 53 55 56 55 55 56 57 58 60 61 64 66 68 69 72 74 73 77 79 82 86 92 100 104 105 109 110 109 109 110 111 114 117 119 119 118 118 114 109
48 49 53 55 54 51 49 53 55 56 57 58 60 62 62 68 73 75 76 78 80 83 86 91 96 101 107 109 108 108 109 110 109 111 114 115 117 117 116 116 111 107 101
52 51 50 51 55 58 58 57 56 58 61 63 65 68 70 72 74 73 77 81 84 89 93 97 101 105 107 106 108 108 108 108 110 111 113 114 114 113 112 108 104 98 93
57 54 53 53 56 58 59 59 61 62 62 65 69 71 74 76 78 81 87 89 92 93 98 101 104 105 104 107 108 105 106 108 109 110 110 110 108 105 102 99 95 90 86
64 57 56 55 55 57 61 62 64 66 70 73 74 75 79 82 85 88 90 93 96 99 103 104 102 104 107 104 104 106 108 110 109 108 108 106 102 98 95 92 88 83 81

GFSMW_250_spd_069.txt.gz
Wind_Speed
28 31 48 48 54 58 60 63 64 62 67 67 65 64 64 60 64 69 67 65 65 69 70 73 72 73 67 70 67 63 62 70 72 69 69 69 70 74 72 73 77 80 81
30 38 48 54 57 55 55 56 57 59 61 69 67 66 66 68 65 68 69 72 64 67 56 53 58 61 56 57 58 58 60 61 63 66 65 70 70 78 77 76 79 79 76
27 25 47 51 55 55 52 52 54 55 57 58 64 64 65 68 68 68 63 62 60 61 59 63 61 58 62 58 60 62 65 68 71 73 74 78 74 77 80 79 78 74 76
30 18 20 30 53 55 56 54 56 53 54 55 58 65 57 57 57 53 55 51 46 41 47 51 54 57 60 65 66 72 72 74 74 73 76 78 80 84 79 73 75 75 78
17 26 20 25 30 49 55 59 58 54 47 46 47 50 52 46 45 44 46 42 42 48 53 54 54 60 61 63 66 68 73 74 75 75 73 75 76 73 75 77 79 78 80
15 20 22 25 30 33 36 36 39 41 44 43 45 45 40 44 46 50 52 51 53 56 55 59 59 62 64 68 69 70 74 78 75 72 71 73 74 77 78 78 80 86 90
14 19 22 25 28 38 41 40 39 39 41 40 42 41 44 48 50 53 58 56 57 59 61 63 64 65 68 70 72 74 72 72 71 72 76 73 77 78 82 84 86 89 93
16 16 21 23 22 28 35 40 45 47 48 46 45 48 49 48 49 52 57 60 58 59 59 61 63 64 66 69 71 72 71 69 69 74 76 75 78 82 85 90 92 93 95
16 16 20 22 24 27 28 30 36 42 44 46 48 49 50 52 51 48 51 49 51 57 61 61 60 62 62 63 64 66 68 70 75 76 77 81 84 87 92 94 97 97 101
24 23 20 21 26 29 32 30 29 31 32 35 37 40 40 36 39 40 43 41 38 41 44 49 56 60 63 66 70 72 75 74 75 78 81 85 87 88 90 95 102 103 102
26 27 27 26 27 26 24 27 31 29 26 24 28 27 27 28 20 18 23 36 33 49 53 58 62 66 73 76 75 76 76 77 78 80 81 84 87 91 92 92 93 95 98
28 29 31 31 29 26 23 27 25 24 30 32 29 32 28 20 26 31 25 61 59 59 64 72 73 78 78 78 74 74 75 77 75 76 78 79 80 83 86 90 93 97 100
24 27 29 32 32 29 29 30 19 12 31 25 24 24 26 44 37 42 51 62 67 64 68 75 76 77 72 69 68 68 68 69 70 71 74 78 81 85 89 92 94 97 101
22 24 33 31 27 32 33 33 23 30 38 39 38 36 43 46 50 57 64 69 72 74 73 71 74 72 67 65 65 65 67 69 71 73 77 79 82 85 88 92 94 98 103
31 28 26 31 36 26 27 31 37 42 50 51 47 50 51 53 59 65 71 73 76 73 72 72 71 67 66 66 66 69 70 71 72 75 79 82 85 86 89 93 98 103 107
32 30 26 26 32 39 33 28 27 37 47 50 52 57 58 63 65 68 71 73 74 74 71 68 66 65 65 66 69 70 71 74 77 78 82 85 89 91 92 95 101 105 107
35 35 29 28 28 31 34 34 36 35 38 43 49 55 58 60 61 62 62 59 59 62 64 64 64 65 68 70 71 73 74 75 79 83 86 91 94 95 99 102 106 108 112
37 35 33 30 27 28 29 30 30 32 37 42 48 52 56 59 61 61 59 57 58 60 63 65 65 66 69 71 70 74 77 80 85 87 91 93 97 99 99 101 104 106 109
40 38 37 35 32 31 32 34 35 37 38 40 42 45 49 54 55 58 60 60 60 62 63 63 64 64 66 69 75 80 81 85 87 92 95 97 97 101 101 100 103 104 107
43 40 40 41 40 38 39 39 41 43 45 47 46 47 50 50 51 53 52 53 55 58 60 62 65 69 72 77 80 83 87 87 90 91 94 97 98 101 104 105 102 101 104
46 43 45 44 46 44 45 46 48 49 51 53 54 55 55 55 55 55 56 57 59 62 65 68 71 74 76 80 84 86 87 86 87 89 93 95 94 96 98 104 107 104 105
50 47 48 49 50 51 50 52 52 53 56 58 59 61 59 58 59 60 60 63 66 68 69 71 73 77 79 81 83 86 86 87 85 87 93 99 98 98 103 104 104 108 113
53 52 51 53 54 55 57 56 56 57 61 64 65 66 63 65 66 62 62 65 68 71 74 75 73 71 74 76 83 87 89 90 90 94 96 99 99 100 101 106 111 114 117
57 57 56 57 58 58 60 60 61 63 66 69 72 73 68 72 74 71 67 64 64 66 66 68 72 72 77 81 83 87 92 92 93 96 100 99 103 105 109 116 119 120 119
60 60 62 62 61 61 63 65 66 67 69 73 76 77 74 78 81 77 70 67 68 70 73 75 79 81 85 92 91 94 90 88 89 104 108 111 115 117 120 121 121 122 118
63 65 67 67 65 65 66 69 71 72 74 78 80 81 82 82 84 77 73 71 72 75 78 82 86 90 92 96 97 91 89 94 102 107 115 121 120 121 121 120 120 116 112

GFSMW_250_spd_072.txt.gz
Wind_Speed
32 35 21 31 40 42 45 49 56 82 81 81 72 71 71 71 71 67 67 66 66 64 59 68 67 66 66 69 73 74 66 65 68 67 68 69 68 67 67 72 74 79 81
26 31 23 21 41 46 50 52 56 55 56 71 72 78 69 62 65 70 72 70 68 64 65 69 72 72 70 63 70 64 63 63 63 66 67 70 72 75 75 79 82 79 81
24 21 19 11 32 46 48 56 59 58 55 55 60 66 72 66 64 61 69 70 69 75 78 71 68 64 68 63 64 67 67 69 71 74 76 73 74 79 80 78 79 75 76
16 21 19 12 16 37 47 45 46 52 48 50 53 53 58 59 57 61 58 65 62 65 58 69 71 64 64 66 62 61 63 65 67 69 71 71 75 74 76 79 77 81 77
11 12 15 17 18 20 28 33 43 46 50 52 48 48 49 52 55 57 54 57 52 57 52 58 57 61 63 64 65 62 64 66 67 68 71 71 74 77 78 77 74 76 78
12 10 12 17 20 25 29 33 32 37 41 40 38 43 43 41 44 46 48 53 51 52 55 60 61 63 67 65 64 65 65 65 65 69 70 72 73 72 70 71 75 78 82
11 11 15 13 12 15 21 29 33 36 38 41 46 45 43 44 46 45 47 49 51 52 56 59 60 62 63 63 63 64 65 64 65 64 63 67 72 75 77 79 81 82 84
17 16 12 15 16 19 19 25 28 31 37 35 36 38 42 44 45 46 48 51 55 54 53 54 57 59 63 66 65 66 61 56 57 62 70 74 77 80 81 84 84 86 88
15 17 19 13 14 15 16 16 17 28 37 37 36 41 45 44 45 47 47 51 42 43 46 50 55 53 59 66 64 56 57 62 65 73 79 80 82 81 82 82 85 86 86
19 22 21 20 18 17 18 20 23 22 20 22 26 24 23 24 27 26 30 31 28 33 39 37 45 56 61 66 67 68 70 74 78 84 86 85 84 83 83 84 85 84 84
9 12 22 27 27 28 27 26 22 20 22 22 22 15 15 16 22 25 23 31 33 33 40 42 51 65 66 67 72 77 77 80 84 88 87 84 83 81 82 82 81 82 83
18 13 12 16 23 28 30 25 22 16 17 23 23 22 20 19 13 19 34 38 44 44 48 59 60 61 69 74 74 81 82 87 87 85 82 81 79 79 79 81 82 84 87
17 15 12 15 18 21 26 29 25 21 25 25 31 34 31 29 29 39 40 45 56 57 62 68 72 71 72 74 81 85 90 90 87 85 85 83 80 80 81 83 86 90 92
25 22 20 19 20 20 20 22 26 30 30 34 41 40 34 34 39 42 56 64 65 64 66 69 76 80 81 85 92 93 92 89 90 87 84 82 83 85 86 88 91 94 96
24 26 26 27 24 19 18 20 21 25 37 40 44 41 44 45 48 51 59 65 68 70 72 75 83 88 90 94 94 92 94 92 87 83 82 87 87 87 88 90 95 98 98
24 27 29 31 32 27 20 19 18 18 26 39 47 51 51 54 59 66 69 73 77 79 82 83 87 90 91 90 87 89 84 83 84 86 86 86 87 89 90 96 95 96 94
29 28 29 31 30 28 28 25 23 20 20 23 29 35 44 53 60 65 70 74 79 84 87 89 87 89 90 88 84 81 82 83 84 86 88 88 88 91 95 94 91 91 89
32 32 32 32 33 32 31 27 29 28 28 29 29 30 33 37 42 46 51 54 58 61 65 70 74 78 80 82 84 84 86 87 87 87 87 90 92 91 87 86 89 91 97
37 35 35 35 35 35 34 35 34 33 33 33 33 35 35 35 37 39 45 49 51 55 58 62 67 71 74 76 79 80 82 85 86 89 89 88 86 84 87 91 93 92 97
43 42 40 42 42 36 37 37 39 40 39 40 41 41 43 43 44 48 52 53 54 55 57 59 62 66 72 74 76 79 80 81 81 83 78 78 83 85 91 93 94 95 100
47 47 46 46 48 45 44 45 45 43 43 45 47 48 49 50 51 54 59 61 61 63 64 63 64 65 68 71 74 76 77 77 76 80 83 85 90 94 98 99 100 94 88
49 51 48 48 49 50 51 52 53 53 51 50 54 56 56 57 59 62 65 67 70 73 72 72 71 69 67 69 72 73 74 76 81 85 89 92 95 96 96 93 91 91 93
53 53 51 52 53 54 55 55 58 60 59 58 58 60 64 64 65 68 70 72 73 78 78 78 79 74 71 71 73 75 78 82 86 89 89 91 93 97 99 97 99 99 110
58 57 55 55 57 57 58 61 62 63 64 64 64 65 69 69 71 73 75 76 79 82 82 82 84 80 75 73 71 73 75 80 84 88 91 93 95 96 94 97 99 111 112
59 58 59 60 61 61 62 64 64 64 66 68 69 71 74 75 78 78 79 81 85 87 87 87 89 87 79 75 75 77 80 84 88 92 93 94 94 96 102 107 113 117 119
61 62 63 65 65 65 68 68 67 68 70 71 74 76 76 80 83 86 85 86 90 92 92 93 92 91 85 82 82 84 87 90 91 95 94 95 101 106 112 116 120 123 125

GFSMW_250_spd_075.txt.gz
Wind_Speed
34 40 32 37 41 41 52 59 62 76 63 64 62 65 66 63 64 65 68 72 70 71 68 65 62 60 67 68 66 65 68 71 77 72 66 73 75 71 68 71 70 71 77
19 24 23 22 24 28 42 52 54 67 64 68 68 67 67 65 62 67 68 67 67 64 60 70 66 65 68 68 68 72 70 68 67 67 64 63 66 67 70 71 74 77 76
19 25 20 12 13 20 42 45 47 42 55 62 69 71 76 72 72 70 67 69 69 71 71 64 59 62 67 71 64 70 65 59 58 64 60 61 64 67 71 73 72 71 72
13 13 11 7 12 19 25 43 50 50 46 53 63 72 71 65 59 62 66 68 63 63 55 64 62 62 59 65 59 56 57 58 57 61 63 66 64 69 67 67 67 65 67
11 9 10 13 16 20 25 30 38 49 50 52 56 59 60 61 64 59 52 60 65 60 63 62 60 57 65 62 60 68 61 65 65 65 63 62 59 60 61 56 59 65 72
7 10 4 11 21 22 24 30 29 39 44 49 52 54 58 57 58 59 61 56 57 55 53 58 60 56 60 60 62 69 67 63 60 60 59 58 56 53 54 61 65 73 82
10 11 8 7 12 20 24 28 34 40 44 42 42 41 47 47 47 48 48 52 53 53 53 52 54 58 60 59 61 62 65 63 58 56 52 48 54 60 63 67 71 78 85
15 16 13 11 14 16 17 22 30 35 39 40 40 40 39 40 41 45 45 45 45 50 50 51 50 51 50 49 54 55 58 58 52 56 59 61 64 65 74 80 80 85 90
6 14 15 15 18 17 17 18 19 24 31 36 37 42 40 40 43 41 42 44 49 49 48 43 38 41 46 46 51 54 59 67 64 69 74 73 75 77 82 87 87 91 93
12 4 9 13 16 16 16 16 18 18 18 20 22 26 30 31 31 33 30 29 33 36 41 39 38 39 43 46 55 63 69 73 74 79 77 80 84 83 87 91 95 96 96
16 13 9 6 13 19 22 22 22 20 19 22 23 25 27 28 28 25 23 24 26 31 38 40 36 40 48 57 60 63 70 77 75 78 83 85 87 90 96 97 97 93 95
19 18 17 16 13 10 11 14 21 20 19 23 25 26 28 30 28 30 31 28 27 42 38 42 42 46 52 57 67 71 77 79 84 83 87 90 95 95 95 96 93 100 98
16 17 18 19 20 20 17 14 13 21 26 30 35 34 34 35 34 33 33 35 37 39 51 49 51 55 61 69 74 77 79 80 84 89 93 98 103 101 101 101 103 101 95
18 18 15 16 19 22 22 19 15 16 24 32 36 36 41 40 37 42 43 47 47 48 52 55 64 65 70 74 79 82 86 89 92 97 101 104 105 107 109 103 98 96 95
20 21 19 19 18 18 20 21 20 15 18 23 35 39 42 43 44 46 46 48 54 56 62 66 68 73 77 81 85 90 96 98 101 104 106 106 104 102 99 99 96 95 96
26 25 24 23 22 21 17 19 18 19 18 17 21 30 42 47 52 53 54 56 58 64 68 73 77 80 84 90 96 99 103 102 100 101 102 100 100 97 95 94 92 96 95
30 28 25 29 28 27 25 21 20 18 18 19 20 25 31 35 39 47 57 59 61 67 71 76 79 79 80 77 76 79 81 84 87 86 86 88 89 92 92 93 96 97 96
33 31 31 31 33 33 31 29 27 25 21 20 22 25 29 34 37 38 40 41 42 46 50 53 53 55 55 60 63 65 68 72 74 77 80 79 83 87 89 90 91 92 85
37 35 35 34 34 35 38 35 33 34 33 29 28 29 30 31 34 35 37 40 44 46 48 51 54 55 56 61 64 66 70 70 69 70 74 78 80 83 86 85 85 87 90
44 42 39 37 35 37 39 39 41 40 40 39 39 39 38 39 43 43 43 45 47 48 52 56 59 63 66 69 72 73 75 75 75 75 74 74 75 79 82 83 86 90 93
44 45 45 42 42 41 41 43 45 46 46 46 46 46 46 49 51 52 52 54 55 57 59 62 66 70 71 74 77 80 81 82 80 80 78 76 77 80 81 85 88 88 91
48 50 49 47 48 48 47 48 49 49 50 52 52 53 52 52 53 56 58 60 62 64 66 69 72 74 78 78 81 83 86 87 87 86 84 80 79 82 85 87 89 92 95
49 52 51 53 52 53 53 53 53 55 56 57 58 58 57 57 58 60 63 64 65 66 69 75 75 78 81 83 84 89 92 92 92 91 90 88 85 85 87 89 92 94 96
53 54 56 56 54 55 59 60 61 61 61 62 63 64 63 63 63 65 67 69 70 71 75 80 81 82 85 88 89 94 97 98 99 96 95 94 93 91 91 93 96 98 100
58 59 58 58 60 62 64 65 67 67 67 68 67 68 68 67 68 70 70 71 73 75 82 84 87 88 89 92 95 98 102 103 104 104 102 100 98 96 95 96 97 100 104
62 62 61 66 66 65 67 70 71 72 73 73 73 72 72 72 73 75 75 76 76 81 87 89 91 93 94 96 100 103 107 107 108 107 105 104 102 101 99 99 102 105 106

GFSMW_250_spd_078.txt.gz
Wind_Speed
27 30 32 22 32 29 34 28 39 53 60 56 57 53 57 59 58 54 59 60 58 58 57 56 60 65 66 61 60 62 59 59 65 61 62 65 68 58 58 57 60 58 59
29 26 23 17 18 22 32 27 35 48 56 59 53 54 55 57 58 54 60 59 58 64 64 66 66 63 64 67 72 74 73 62 57 55 54 56 56 60 57 59 59 62 65
26 21 20 21 17 20 21 22 28 40 50 50 49 51 54 62 60 62 59 61 63 66 66 62 62 66 73 72 66 57 55 53 59 52 53 53 58 57 62 61 63 62 60
21 19 15 14 11 14 18 25 25 31 39 38 43 47 46 51 57 63 63 62 61 63 62 62 64 65 61 60 57 55 52 52 52 53 55 57 56 57 58 59 60 58 58
18 17 10 12 13 14 16 21 24 27 30 33 40 39 36 43 52 56 57 57 58 62 62 56 56 53 55 53 57 55 53 57 57 56 56 57 56 53 53 52 51 53 56
17 14 11 10 15 15 19 23 23 25 29 36 38 36 34 37 47 55 56 58 60 58 54 56 54 57 52 51 58 58 57 59 62 61 58 52 54 46 44 44 50 55 64
15 15 16 10 9 17 19 20 22 25 26 30 35 38 37 39 39 42 47 47 50 48 47 45 45 48 51 55 56 59 61 59 62 64 52 46 48 52 59 59 64 71 77
16 14 15 14 12 10 12 15 21 26 29 29 30 32 33 34 35 38 39 39 40 42 43 48 50 50 51 52 57 56 62 63 61 65 67 61 57 60 64 69 76 80 83
16 14 15 14 14 13 14 17 18 20 24 29 32 33 34 36 37 39 41 41 43 46 52 47 46 44 44 45 50 54 59 56 56 54 62 65 67 71 75 80 85 86 85
17 14 11 14 17 14 13 13 17 20 22 22 25 29 34 36 38 41 43 44 33 31 38 36 36 37 40 43 49 54 53 58 57 61 63 72 75 81 86 86 86 86 86
17 16 12 11 9 11 17 22 23 21 21 22 23 25 26 29 32 34 37 37 42 40 42 41 40 41 44 42 45 51 52 56 60 61 62 68 80 89 90 88 89 96 101
19 17 14 7 8 10 9 15 21 28 31 31 29 31 34 34 36 36 39 36 38 41 42 44 47 47 51 50 53 58 55 57 59 62 67 80 84 85 91 97 102 108 109
22 18 15 15 10 7 9 10 13 22 29 35 35 35 37 39 43 39 38 36 37 40 44 44 47 45 53 55 56 56 56 66 69 75 81 85 89 97 103 107 110 110 110
23 22 20 19 17 13 12 11 10 9 19 26 37 39 39 39 40 38 36 38 39 41 46 48 51 54 55 57 56 61 65 71 76 80 87 93 97 95 97 93 93 94 95
28 24 24 24 23 20 19 17 14 12 11 12 23 35 44 42 42 42 40 41 44 46 49 54 56 57 58 61 64 70 75 78 78 80 80 81 76 75 78 81 82 83 86
34 34 30 27 27 26 24 24 20 17 16 17 15 15 20 29 39 42 45 46 48 51 55 59 61 62 64 67 65 61 61 59 60 59 64 66 67 70 73 73 72 74 78
38 35 30 28 30 29 29 28 27 24 23 20 20 18 19 22 25 27 31 35 39 42 45 48 49 49 50 54 55 56 58 58 59 61 65 67 69 72 77 78 77 77 76
41 39 34 33 34 33 32 31 30 30 28 26 27 29 28 26 27 29 31 32 34 37 39 42 45 48 50 53 55 57 58 58 61 64 67 70 72 76 81 82 83 82 80
44 45 39 36 36 38 36 33 31 31 31 31 30 32 33 34 36 39 41 41 42 43 46 47 48 51 54 58 59 61 62 62 66 69 73 73 75 79 83 87 89 88 87
48 46 43 42 42 43 42 41 39 38 36 36 35 36 36 38 40 41 44 45 48 50 52 54 56 58 60 62 64 67 67 66 70 75 77 78 80 83 86 90 93 95 96
48 49 51 53 49 47 47 45 47 46 45 43 42 43 44 45 46 49 51 50 51 53 55 57 59 61 64 65 67 70 70 73 77 80 82 83 85 88 91 95 99 101 102
57 52 50 51 51 51 53 52 53 51 50 49 48 52 53 54 55 56 57 59 59 59 61 61 63 66 67 69 72 74 74 79 83 86 87 88 89 92 96 100 102 106 107
66 64 57 52 51 52 52 56 58 57 55 54 54 56 58 59 60 62 63 65 67 66 66 67 69 71 73 75 77 76 78 84 90 90 92 93 95 98 101 104 107 111 112
70 66 64 58 57 59 56 60 62 63 62 60 59 62 65 65 66 67 68 70 72 73 73 73 74 77 79 81 79 78 83 91 93 95 96 98 100 103 106 108 112 116 116
71 72 71 67 65 67 66 67 66 67 68 65 65 68 69 70 70 73 75 75 76 78 79 78 79 81 85 82 82 84 90 96 97 98 100 101 104 108 111 113 115 118 118
69 70 72 73 72 72 73 72 69 69 72 70 73 74 73 74 76 78 81 79 80 82 83 83 86 87 89 86 86 91 97 99 100 102 104 106 109 112 115 117 120 120 121

GFSMW_250_spd_081.txt.gz
Wind_Speed
32 21 21 21 18 19 22 21 23 24 27 38 40 48 53 47 53 50 48 49 48 51 53 56 62 58 56 56 58 61 60 56 59 61 66 65 65 59 63 58 54 52 56
35 23 20 14 13 16 22 26 28 24 32 38 44 50 56 55 49 52 52 52 55 52 55 56 54 56 60 60 61 58 59 57 61 67 67 63 68 58 55 59 54 55 55
35 25 21 15 16 18 20 20 22 27 32 40 43 50 52 51 51 53 54 54 52 54 53 53 53 53 59 64 65 59 54 63 63 63 64 60 60 56 53 55 57 58 60
34 25 18 15 18 14 16 20 25 31 33 40 39 40 46 51 52 53 54 52 52 48 50 48 54 61 61 57 56 60 63 55 51 53 53 50 52 54 55 57 60 58 57
31 23 15 13 15 12 15 20 28 31 33 35 39 40 41 49 49 46 45 49 53 57 55 57 51 54 54 50 46 48 52 57 54 53 52 53 53 57 59 58 58 57 51
32 26 14 11 13 11 13 17 28 29 29 33 32 33 35 36 39 43 47 45 41 44 53 57 48 50 47 41 45 51 53 50 51 50 52 54 52 55 53 50 50 54 58
29 27 21 11 9 6 15 19 20 25 25 26 28 29 27 28 28 30 32 32 35 34 36 38 37 39 43 48 49 48 51 52 54 54 54 50 48 48 49 51 55 57 63
26 28 23 17 9 6 5 21 23 27 31 31 30 28 30 31 31 32 34 38 36 37 39 41 42 45 45 49 50 52 52 53 48 51 51 52 55 57 53 58 65 62 74
20 24 26 16 15 12 11 12 13 20 31 35 34 34 36 36 38 40 38 39 40 41 41 40 45 44 47 48 49 47 47 47 51 55 57 49 50 54 61 66 68 69 78
18 19 21 20 11 11 14 15 15 13 16 22 29 34 39 42 43 44 43 44 41 40 43 45 49 49 53 49 50 48 50 49 52 52 54 57 53 57 60 63 59 63 80
21 12 20 20 13 8 7 11 17 20 19 18 22 25 29 34 39 43 45 47 45 46 46 45 48 48 48 44 47 48 50 53 51 54 57 55 58 62 62 57 65 72 86
26 16 13 18 16 11 10 9 9 13 18 24 25 26 28 30 33 37 41 42 42 41 42 42 44 45 42 43 47 49 48 50 54 57 58 58 59 66 64 71 72 81 71
31 23 16 15 17 13 13 14 12 10 10 17 25 30 35 37 38 40 41 40 39 40 42 43 44 43 44 47 47 47 51 54 58 56 56 62 64 70 72 67 65 62 65
36 32 22 18 18 14 13 16 17 14 12 12 13 21 25 30 38 41 38 35 36 42 41 43 44 45 46 49 51 53 55 57 58 61 60 54 51 53 57 60 62 65 66
38 39 32 21 21 22 19 17 18 17 15 14 15 16 17 23 27 29 32 33 32 33 37 40 44 46 49 52 54 54 50 51 53 53 54 57 59 62 63 62 66 68 69
42 40 39 33 29 28 26 23 23 20 19 19 18 20 19 19 18 21 24 28 30 32 33 36 38 40 42 44 45 46 48 50 53 56 58 59 60 63 62 63 65 69 71
50 47 42 41 37 35 31 27 26 25 24 23 23 22 22 23 24 25 24 25 27 30 32 35 36 38 42 44 45 48 49 52 55 58 61 63 65 66 67 67 70 73 75
53 49 49 44 43 42 37 31 28 29 30 28 27 26 27 29 28 28 29 31 33 36 38 40 43 46 49 52 54 56 57 59 62 64 66 68 69 72 74 73 72 77 80
56 52 50 49 46 44 40 34 30 32 33 33 31 31 29 30 31 32 34 35 38 39 41 42 44 48 51 54 57 60 63 65 66 69 71 71 74 79 80 79 78 82 85
57 60 56 51 50 45 44 41 35 36 38 41 41 40 39 39 40 40 41 42 42 44 45 48 50 52 54 57 59 62 65 68 71 71 72 75 79 83 82 79 82 87 90
60 61 60 57 54 47 44 48 44 45 46 45 47 48 48 47 47 47 50 50 48 49 52 54 56 58 60 62 65 68 70 73 73 73 75 78 80 81 80 81 84 90 93
64 63 61 64 61 59 50 48 53 54 53 52 53 54 55 54 53 54 55 58 58 59 61 63 64 64 66 69 71 72 74 76 78 78 81 84 87 86 86 86 90 97 100
69 68 66 64 67 61 62 56 53 56 58 55 54 55 57 64 63 60 62 62 66 67 68 70 70 70 73 76 78 78 79 81 82 84 87 89 87 88 92 94 97 101 105
70 70 71 72 70 67 67 67 68 67 65 67 67 67 69 69 67 67 67 71 73 74 76 76 76 79 81 83 84 85 86 87 88 89 91 90 92 95 97 98 102 105 109
74 72 71 71 71 72 72 71 70 72 71 71 72 74 75 75 73 72 74 78 78 80 83 84 83 84 88 89 90 93 92 94 95 97 96 97 99 99 102 106 110 112 114
72 71 73 74 75 74 74 76 75 75 77 78 80 78 78 78 79 81 83 86 86 87 88 89 89 90 94 94 96 97 100 102 103 102 102 104 104 105 108 115 117 118 120

GFSMW_250_spd_084.txt.gz
Wind_Speed
32 32 29 21 20 24 27 31 26 25 23 26 30 28 29 38 49 43 52 54 54 48 45 49 47 49 51 51 53 58 61 64 61 63 64 65 59 58 56 55 53 56 55
32 32 25 17 13 13 20 27 28 25 23 32 32 32 35 38 44 44 50 51 48 49 43 47 49 47 50 55 58 58 63 64 65 65 63 62 61 57 56 57 55 55 54
31 30 24 17 15 10 15 21 28 27 23 35 39 40 38 39 43 50 49 47 53 49 48 50 57 53 54 53 55 61 60 59 60 63 66 64 60 61 63 64 61 55 56
30 29 26 16 14 15 11 18 27 27 30 35 44 44 45 47 49 49 54 55 51 51 53 54 55 56 57 54 57 58 59 59 56 55 55 58 60 59 62 58 55 56 58
27 27 27 17 14 15 11 13 24 28 35 37 43 47 47 49 52 51 50 54 51 53 54 54 55 58 54 55 51 54 56 56 52 52 55 63 58 56 54 56 57 58 61
23 27 24 23 14 13 9 11 14 24 40 42 47 46 45 49 50 50 50 51 54 53 53 51 52 51 53 53 55 56 55 53 56 64 63 57 54 58 57 56 55 52 54
23 25 21 25 15 13 10 11 18 25 33 36 47 47 43 46 44 44 47 46 47 47 47 51 54 52 50 52 51 50 50 51 53 54 56 55 56 57 52 49 50 55 53
22 23 22 20 19 12 12 16 18 21 33 33 41 40 43 46 43 40 48 44 43 46 45 46 45 46 47 49 50 54 54 53 55 56 59 59 58 50 44 44 53 54 58
24 23 26 15 20 15 14 14 19 23 29 31 34 38 38 43 41 45 43 45 47 48 43 46 44 45 51 52 53 56 55 54 57 60 59 53 54 53 55 55 55 57 57
28 24 23 15 17 18 12 13 15 20 30 35 36 36 37 39 42 43 48 46 45 47 47 48 48 50 55 55 55 56 55 56 55 52 51 52 53 54 56 56 52 57 63
29 27 25 16 10 13 13 8 13 18 21 26 34 41 40 42 44 44 45 47 50 51 51 53 53 54 56 55 56 59 57 50 47 48 51 53 55 57 57 55 53 55 60
31 33 28 19 13 10 12 10 6 6 18 25 26 28 35 42 49 50 51 52 53 52 51 52 52 54 56 58 54 53 50 51 50 49 48 54 59 61 58 52 53 59 66
34 34 32 30 21 16 13 14 10 7 6 6 13 23 30 34 35 37 39 43 44 46 46 45 47 52 51 51 50 52 53 52 56 59 59 59 57 51 52 53 54 56 62
36 38 36 36 32 24 19 19 19 11 7 7 6 4 9 19 26 30 34 36 34 36 36 37 42 46 51 53 54 55 50 49 54 54 49 47 50 50 53 57 60 61 63
40 42 41 37 39 33 26 23 21 20 17 12 10 11 12 12 11 10 17 24 23 29 33 35 38 38 39 38 39 42 44 44 45 46 47 49 51 52 54 59 64 66 70
46 45 45 43 43 45 36 29 29 26 23 21 17 17 16 16 18 19 18 17 16 15 17 19 22 25 29 33 36 38 41 43 46 48 52 55 58 61 64 67 69 71 73
54 49 50 46 47 48 45 43 36 33 30 28 26 24 23 22 22 22 23 23 22 23 25 27 29 32 35 38 41 44 46 48 50 52 55 57 60 64 66 69 71 71 73
60 49 53 52 48 52 49 45 43 41 37 35 33 30 28 28 28 28 28 27 29 29 30 32 34 37 39 41 42 45 46 48 50 53 56 59 61 64 67 70 72 75 78
64 54 57 58 55 52 52 50 48 44 41 41 40 37 35 33 34 34 34 34 35 36 37 38 40 41 43 45 47 49 52 55 57 59 61 64 67 69 71 74 76 79 82
60 58 61 61 61 58 54 53 51 50 46 44 45 43 41 39 41 42 44 45 45 46 46 48 50 52 51 52 55 57 60 61 64 67 69 72 75 76 77 80 82 84 86
59 64 64 61 57 59 55 55 46 51 55 51 46 48 45 45 46 47 49 51 53 54 55 57 57 58 60 62 64 67 68 72 73 74 77 80 82 84 85 87 89 92 93
62 67 69 67 61 60 59 58 59 58 57 57 54 47 53 54 52 52 53 56 58 60 63 65 65 65 66 68 70 71 74 78 81 82 85 86 89 90 91 92 96 99 99
64 68 71 74 70 64 61 63 62 65 61 61 57 56 54 53 55 57 61 66 70 72 71 71 72 72 74 75 77 79 81 83 87 89 91 94 95 96 97 98 101 104 107
68 71 74 75 74 73 69 65 65 65 64 62 66 68 69 72 73 75 77 79 76 76 76 77 78 80 83 84 85 86 87 89 92 93 96 98 98 101 102 105 108 111 115
68 70 73 75 74 76 76 74 71 69 69 70 67 66 69 71 73 74 76 79 78 80 82 82 81 83 85 88 91 92 93 95 96 98 101 102 104 107 108 111 114 121 119
67 69 71 70 70 73 77 78 76 78 76 76 75 76 77 78 78 81 83 84 84 83 88 90 89 90 93 95 96 97 98 99 101 102 105 108 110 112 115 119 123 121 124

GFSMW_250_spd_087.txt.gz
Wind_Speed
29 30 32 37 38 32 27 27 30 34 37 39 44 37 35 27 43 49 57 60 56 53 48 43 52 56 50 60 56 52 52 51 53 55 55 57 59 57 57 59 62 64 65
27 28 31 35 37 30 25 25 31 37 37 41 45 38 35 31 33 42 50 47 52 53 49 54 57 54 46 55 53 50 49 52 54 55 57 58 60 58 62 64 65 67 62
26 26 28 33 35 26 19 22 25 31 40 40 46 42 36 37 35 41 46 47 46 47 54 56 55 56 52 49 52 54 50 47 49 51 53 59 60 65 68 67 68 67 64
26 25 25 30 32 26 20 15 21 22 36 36 43 41 38 37 35 44 46 49 52 52 51 53 57 56 51 51 52 54 54 56 55 60 60 66 68 67 68 69 65 63 65
27 24 25 25 30 27 21 14 15 24 36 33 39 40 42 41 40 48 49 49 51 53 53 47 51 55 55 53 57 53 56 61 61 63 67 66 66 66 61 61 62 65 65
24 23 24 23 28 28 21 14 9 21 31 34 37 44 51 49 48 52 54 55 55 53 54 58 58 59 59 58 59 61 59 62 63 64 66 65 64 61 63 65 66 64 62
21 23 24 23 26 26 23 15 11 17 29 38 40 51 52 53 55 56 55 60 59 59 59 56 56 58 57 59 59 58 59 61 63 62 62 64 63 62 64 68 69 65 63
27 25 23 24 25 24 23 18 11 18 24 39 43 50 56 56 57 60 57 60 60 58 56 55 55 55 55 55 57 60 60 59 61 63 62 61 65 65 67 68 62 64 66
34 28 23 24 27 19 22 15 13 13 18 35 42 47 54 55 54 56 60 63 63 63 61 58 58 56 58 59 58 59 59 62 63 64 63 62 66 67 67 66 68 64 62
34 28 23 23 28 19 16 17 12 12 16 24 38 44 46 57 55 50 53 59 57 55 57 60 61 58 60 60 60 60 57 57 61 63 65 68 69 65 69 70 65 61 58
37 33 29 27 26 22 13 16 14 11 14 18 33 38 41 50 55 52 54 51 54 52 56 55 55 59 60 59 57 61 62 62 64 66 66 65 65 67 63 63 59 65 71
42 38 36 31 28 25 18 12 14 12 9 16 21 36 44 44 44 48 49 56 55 57 58 59 63 59 54 57 60 64 65 61 59 62 65 66 66 62 60 63 65 61 56
43 43 38 32 34 24 25 19 12 12 13 11 13 25 29 35 46 47 45 49 51 53 55 52 55 58 59 59 60 60 60 61 61 60 63 62 58 59 60 62 59 53 56
46 46 43 37 35 35 25 30 23 17 16 16 13 12 14 24 34 37 41 47 54 58 59 61 64 62 58 54 55 56 56 58 59 58 61 61 62 58 50 51 53 56 59
51 49 49 41 37 41 35 30 36 29 22 21 20 17 16 13 13 15 18 24 33 38 42 45 47 50 53 52 53 54 51 50 49 49 46 45 46 48 50 52 53 56 59
57 50 47 44 42 43 43 34 33 37 32 29 27 25 23 22 20 19 19 19 20 20 21 25 32 34 36 37 36 34 37 37 37 39 42 43 45 46 49 51 54 56 59
58 58 51 49 47 44 46 48 42 38 42 39 33 33 33 30 29 27 26 25 25 25 25 25 27 29 30 33 33 35 35 37 38 39 42 45 48 51 54 57 61 63 67
68 65 59 53 51 49 47 53 51 44 43 43 43 42 41 38 36 35 33 32 32 33 32 32 33 34 35 36 38 41 43 45 47 48 49 54 55 59 63 66 69 72 76
70 66 64 58 56 55 52 53 58 56 47 43 43 42 39 39 43 41 40 38 38 39 40 40 41 42 43 46 48 51 53 54 55 57 60 63 65 66 69 72 75 77 81
77 72 69 67 64 63 61 56 61 61 58 51 45 45 48 47 45 43 47 48 46 44 45 46 48 49 50 53 57 59 62 59 63 65 67 69 72 73 78 80 82 84 87
88 84 81 76 72 69 63 61 61 64 62 57 53 52 47 51 52 48 48 48 54 50 51 53 52 54 55 60 65 70 68 67 69 70 72 75 79 81 83 87 89 91 93
82 79 75 71 65 65 62 59 60 63 66 67 65 60 55 53 54 57 56 52 51 57 58 58 61 64 66 69 73 76 77 76 77 79 80 82 83 85 89 92 94 97 99
73 72 69 64 61 60 58 58 60 62 58 63 65 61 59 60 61 61 64 68 69 69 70 73 69 70 73 77 77 78 82 84 86 87 87 88 92 96 99 101 101 103 104
64 64 62 59 56 57 55 61 62 63 62 56 57 62 65 63 61 60 61 65 66 67 71 73 75 79 80 81 81 83 85 86 88 91 94 97 101 103 105 106 108 109 109
58 58 57 53 51 55 56 60 64 67 70 66 65 66 64 66 67 66 69 72 70 71 72 75 79 82 86 87 89 90 90 92 95 98 101 103 103 104 106 107 110 113 114
53 51 52 52 47 39 40 56 64 70 73 78 78 77 75 75 75 77 77 79 80 84 85 86 88 90 93 95 95 95 95 98 101 104 105 105 106 108 111 113 115 115 117

GFSMW_250_spd_090.txt.gz
Wind_Speed
35 40 33 29 27 31 36 30 21 23 41 51 45 44 40 39 49 58 65 63 63 60 51 55 53 50 51 41 48 48 44 47 48 46 47 48 50 49 52 53 53 55 57
35 35 30 28 25 29 36 32 26 25 36 48 46 49 44 40 44 56 62 71 61 70 64 56 54 53 46 49 48 55 51 48 53 52 50 50 52 52 49 51 53 57 59
30 29 27 26 24 27 34 33 25 29 28 45 49 51 46 42 41 50 51 57 67 66 62 62 60 60 55 48 48 51 54 56 57 57 52 50 44 47 52 56 59 63 65
30 30 25 26 23 25 31 35 24 26 24 37 49 48 48 46 42 44 53 55 53 62 62 55 60 57 51 50 51 50 54 54 53 55 52 53 53 58 58 60 62 66 70
29 29 23 27 24 24 29 34 27 22 22 27 45 47 47 50 47 41 40 45 48 49 52 50 47 50 49 52 57 56 58 56 53 54 54 56 57 58 59 63 66 70 73
26 27 24 25 25 27 25 31 28 20 17 22 39 44 48 50 48 46 42 42 43 43 46 47 52 51 53 59 56 55 56 55 55 56 58 58 61 60 62 64 66 72 72
27 29 21 22 23 26 25 26 28 19 15 24 34 36 43 48 48 46 45 45 47 46 48 51 54 53 51 56 56 58 59 61 60 59 59 61 64 65 66 71 71 72 70
28 30 28 27 24 26 24 25 28 19 19 25 32 36 40 49 47 45 44 45 51 49 52 55 56 55 57 62 63 61 59 57 58 60 62 63 65 69 71 68 69 70 72
37 32 28 28 24 23 25 25 23 24 15 16 34 40 45 46 49 48 47 48 50 56 56 58 61 60 60 60 59 58 58 62 63 63 64 66 72 71 69 70 72 71 72
36 35 29 30 27 23 23 25 21 20 19 15 24 41 46 48 52 54 57 55 54 56 58 61 61 64 65 64 64 61 62 62 64 69 72 70 70 68 64 68 72 74 67
42 40 34 31 30 25 20 26 20 16 17 16 16 27 46 47 54 56 51 53 57 59 61 60 61 66 66 67 67 64 65 66 68 70 69 66 66 70 71 75 73 69 70
49 41 39 33 34 30 26 23 24 18 14 16 16 18 26 44 45 48 54 56 56 57 56 63 64 65 64 62 62 65 67 65 66 71 68 66 69 74 74 74 70 71 69
53 41 42 38 37 30 27 26 23 25 19 15 17 17 16 23 35 45 48 45 53 57 54 55 55 55 58 58 60 62 63 65 66 66 70 72 75 75 70 67 67 65 65
55 48 46 41 33 33 33 32 29 25 31 25 18 19 19 15 16 30 40 47 46 47 53 55 55 57 59 62 63 63 64 67 71 73 74 75 75 71 66 59 57 55 55
58 50 43 40 39 41 39 38 35 35 25 35 30 22 21 24 20 17 17 24 37 47 53 57 57 58 60 61 62 65 69 71 74 76 74 61 58 53 50 50 52 53 52
67 58 52 40 44 44 43 44 39 37 39 27 40 33 28 26 26 26 24 21 20 20 25 30 35 39 45 51 56 59 60 59 58 56 49 43 44 47 50 51 53 55 58
65 54 54 54 49 49 46 43 43 42 41 45 33 36 39 35 32 29 31 31 30 29 28 28 29 29 31 34 34 35 36 37 39 41 43 45 49 54 55 57 59 64 66
59 59 63 63 50 48 47 48 46 44 47 45 49 45 36 41 43 41 38 38 37 36 36 36 35 34 35 38 38 40 40 42 45 48 51 54 56 58 58 60 63 66 70
67 67 64 57 53 55 55 55 58 55 52 53 52 52 53 47 39 44 48 45 43 43 44 43 44 43 43 44 45 47 49 50 53 54 52 56 59 60 61 64 68 71 73
75 71 67 63 62 62 60 58 57 57 57 56 54 51 53 54 54 46 48 43 42 43 45 47 46 50 51 51 51 54 55 56 58 62 64 67 68 68 68 70 74 78 82
82 80 77 74 71 70 70 70 65 65 63 58 60 60 62 64 61 59 53 49 51 52 53 52 51 53 51 53 58 62 63 64 66 71 74 77 79 80 78 81 84 86 91
87 92 89 89 84 80 77 76 73 72 73 70 66 67 65 67 69 64 60 58 59 59 62 63 64 64 64 65 65 68 70 72 74 77 79 80 83 84 85 88 91 94 97
76 72 80 82 82 81 80 81 80 79 79 77 70 68 64 65 72 71 67 66 62 64 64 64 66 66 67 69 72 72 73 77 80 83 84 85 87 88 90 95 99 101 103
61 59 64 67 70 73 73 72 70 68 67 67 66 65 68 64 62 68 71 72 72 69 69 68 70 71 72 72 75 77 80 83 86 89 92 93 95 98 101 103 104 106 110
58 57 58 61 61 62 62 61 60 60 61 61 62 62 59 60 56 60 63 70 71 72 71 73 76 77 79 81 84 88 90 91 93 96 99 100 101 106 109 112 113 113 114
53 55 53 56 57 58 57 54 54 53 51 49 56 59 57 58 60 65 70 70 70 71 74 76 79 82 85 87 89 91 92 95 96 96 100 107 108 111 114 116 118 120 120

GFSMW_250_spd_096.txt.gz
Wind_Speed
41 33 41 31 32 32 32 37 35 30 30 31 32 25 32 26 38 38 44 46 56 52 52 54 53 55 49 47 43 46 37 41 38 38 37 41 44 44 33 37 41 42 39
30 30 41 29 30 29 32 37 32 29 28 30 30 29 25 27 37 41 44 46 51 58 58 56 54 50 53 54 46 45 46 39 44 47 49 47 48 45 45 40 41 43 44
27 31 42 28 29 26 29 34 29 29 29 30 30 28 26 27 33 42 45 49 48 52 56 59 58 57 55 56 54 53 46 47 42 45 46 48 48 48 46 47 47 47 50
33 35 41 29 27 26 28 32 30 28 28 29 29 27 26 24 32 43 45 49 45 45 51 45 58 54 58 57 58 56 58 56 52 49 44 44 44 51 50 50 52 55 53
32 35 39 28 26 24 28 31 29 28 27 28 29 28 23 22 28 39 44 47 46 47 44 50 52 52 53 61 62 62 58 57 59 54 52 55 47 48 52 54 58 58 57
30 34 37 30 28 26 28 28 28 26 26 26 29 31 25 15 21 34 42 42 42 43 46 49 49 54 56 60 60 61 64 60 60 59 61 57 55 56 51 53 53 55 58
37 35 39 32 31 28 26 25 24 24 24 24 28 31 26 18 13 24 34 38 35 39 38 51 54 52 57 59 58 62 62 62 62 64 59 60 63 64 60 58 55 54 55
36 37 35 33 34 30 29 25 25 27 26 26 23 27 27 17 14 14 27 31 37 38 39 43 51 55 56 58 62 63 63 70 70 66 69 68 67 65 58 59 59 59 62
41 40 31 31 30 26 29 23 24 25 26 28 22 22 25 19 14 12 24 28 29 35 42 43 47 47 50 49 57 61 58 60 66 71 71 63 66 58 56 57 60 63 64
41 35 30 31 30 27 29 27 22 23 27 27 25 20 21 19 15 16 19 25 27 29 41 42 45 49 51 53 53 54 56 56 60 60 56 56 56 58 60 64 64 65 66
41 37 32 29 32 28 31 28 23 27 27 27 25 19 17 18 15 18 23 27 30 31 35 40 44 43 44 49 52 51 51 49 53 54 55 56 56 60 63 65 68 68 70
43 39 33 35 33 29 29 32 33 30 30 28 24 22 17 16 16 14 17 26 33 38 37 39 42 42 45 43 46 50 53 54 52 51 54 55 54 56 60 62 63 68 68
52 44 40 38 36 32 30 36 36 32 30 29 29 25 20 20 17 15 13 15 25 33 38 41 43 48 50 51 51 49 53 55 59 58 60 62 63 63 63 66 69 70 69
54 53 47 39 34 30 32 35 36 38 33 30 30 31 26 23 22 20 17 15 14 21 33 36 41 46 49 52 54 56 57 57 56 56 56 58 59 63 69 72 72 74 75
53 45 48 46 37 35 36 35 37 41 40 36 33 33 33 30 26 22 25 22 19 18 18 22 31 41 47 49 49 51 54 51 52 55 55 59 61 64 66 67 72 71 69
55 49 44 42 43 43 36 38 42 44 41 40 39 38 39 36 36 29 27 29 29 27 26 24 23 24 25 28 35 42 46 47 48 47 48 47 46 45 44 43 44 46 48
53 50 47 41 41 44 41 41 39 36 36 35 33 34 39 42 43 42 37 38 33 35 35 33 33 32 31 31 31 31 31 33 34 35 36 37 39 42 45 47 48 50 54
57 51 52 56 53 50 43 46 47 45 39 35 37 37 39 40 44 43 45 40 42 42 41 39 40 42 43 42 41 40 40 42 43 45 46 46 48 51 53 55 57 58 60
57 58 53 52 52 47 48 50 56 55 51 53 49 43 45 44 38 46 44 46 49 50 49 49 46 44 46 47 48 50 50 52 53 54 54 55 58 58 59 63 65 67 69
61 57 61 61 59 60 58 56 56 57 59 60 61 62 56 50 43 48 54 53 52 52 54 57 57 57 58 58 57 57 57 55 58 60 61 64 63 66 69 71 72 73 74
66 66 65 66 67 66 65 65 64 67 62 62 60 54 53 53 54 52 54 55 54 55 58 57 61 60 58 62 65 67 66 65 63 64 66 66 67 68 71 74 77 82 85
72 73 72 71 70 69 70 67 63 66 69 67 63 58 59 60 61 54 58 57 57 59 61 64 64 65 63 64 66 70 71 73 75 75 76 78 80 80 80 81 80 84 90
71 72 72 73 73 68 65 66 67 66 58 60 64 67 65 65 67 66 55 64 61 63 64 65 67 69 68 71 69 65 68 72 74 76 76 78 79 82 84 86 87 88 93
71 71 70 71 70 70 72 72 71 69 68 69 70 68 68 69 68 65 64 63 70 71 67 72 68 71 75 72 61 64 66 73 73 70 76 68 80 80 79 78 86 89 89
76 75 74 74 76 77 78 79 78 80 83 83 85 85 87 87 88 85 81 81 77 75 74 77 79 80 79 77 75 75 59 73 72 70 78 80 80 80 82 87 90 94 94
73 76 77 78 81 82 80 78 73 70 67 63 63 64 63 65 71 77 81 96 100 91 89 88 97 101 98 100 97 92 85 92 88 83 86 92 89 94 88 88 96 100 103

GFSMW_250_spd_102.txt.gz
Wind_Speed
66 64 57 53 47 52 50 49 35 38 32 31 32 33 33 26 27 29 32 25 34 39 51 51 52 52 52 47 46 38 39 44 43 36 35 34 37 36 37 28 28 29 25
61 57 57 47 50 52 49 47 35 39 31 30 30 32 30 25 25 28 32 27 31 47 45 52 55 53 54 49 49 48 48 42 38 33 34 34 41 38 37 31 31 38 33
59 57 53 47 50 53 52 46 35 39 29 29 29 32 27 25 26 29 33 28 31 49 49 47 55 52 49 51 50 55 54 48 44 39 42 39 43 47 46 40 34 34 33
60 62 55 47 51 54 53 44 35 37 28 28 30 27 22 23 27 29 33 28 31 49 52 50 47 59 57 58 56 52 46 51 45 44 44 42 42 39 38 36 35 39 41
65 53 52 51 54 56 53 41 36 36 29 26 31 24 22 23 27 28 31 24 30 49 54 54 49 55 65 64 54 58 55 49 52 47 47 49 49 48 44 43 43 44 45
61 58 57 56 57 56 50 37 39 35 30 27 30 23 22 24 25 28 30 21 28 48 60 56 49 57 54 56 58 54 51 55 54 50 50 51 55 55 53 52 51 52 52
63 64 62 59 55 54 52 36 39 34 31 29 28 22 24 23 25 27 28 21 24 38 60 62 56 57 54 53 53 51 53 53 54 57 57 61 64 61 60 59 59 59 61
67 66 62 59 51 52 48 36 39 37 34 32 29 21 20 20 20 24 25 19 22 34 55 61 62 57 55 53 52 52 51 55 56 58 60 60 62 65 64 63 62 63 61
58 58 54 52 54 49 48 41 43 39 36 31 28 23 19 20 17 20 24 13 14 24 44 48 53 50 54 55 58 53 54 58 59 58 62 62 63 64 64 64 63 60 63
55 57 47 49 45 49 46 43 43 40 33 29 28 22 17 22 19 16 19 14 8 14 27 39 40 47 46 52 53 53 58 54 50 50 56 60 64 66 69 70 69 70 70
49 43 45 44 45 45 42 41 41 34 35 26 27 23 20 23 21 15 16 15 14 14 19 28 33 35 42 46 51 51 56 58 58 59 64 61 60 59 62 63 66 64 63
35 36 40 39 46 46 41 42 38 36 29 26 26 26 22 23 22 19 18 16 9 17 24 27 28 32 35 43 48 49 46 50 53 57 65 64 64 62 60 60 59 65 68
33 36 39 49 50 46 41 41 39 33 31 28 27 33 27 24 21 20 18 18 17 12 11 23 25 29 32 34 39 41 42 44 46 49 54 57 57 59 58 58 61 60 56
36 43 48 50 48 43 39 40 39 37 32 33 32 29 27 25 20 22 20 18 21 21 18 14 20 28 29 34 35 39 44 47 50 51 47 47 50 52 55 56 54 55 56
40 50 45 45 45 45 45 44 38 35 29 34 31 29 28 28 24 24 23 25 22 24 23 23 20 18 28 33 37 38 39 40 42 45 47 49 51 54 55 56 56 57 59
45 49 47 49 49 47 47 44 41 36 32 33 33 33 30 29 28 27 27 25 24 24 27 26 25 25 25 24 28 36 40 43 47 49 51 53 53 55 57 58 58 59 60
52 47 51 54 52 46 46 45 43 41 40 38 38 36 35 36 34 31 29 25 22 23 23 26 30 30 31 31 32 32 32 34 37 40 43 45 48 50 51 52 51 50 50
54 51 54 54 53 51 51 52 51 47 48 42 40 39 40 40 41 41 39 34 33 31 26 23 24 28 30 33 36 39 40 40 42 44 46 47 48 48 50 52 53 54 56
55 61 57 59 60 57 55 52 54 52 52 47 44 42 48 48 45 41 43 41 39 37 37 38 39 38 41 41 41 40 41 43 48 50 51 51 52 53 54 57 58 59 60
59 60 63 62 65 64 59 55 56 53 54 56 54 55 54 51 49 47 46 47 47 46 50 51 49 48 49 47 41 45 50 50 50 51 52 54 56 59 60 62 63 65 65
63 61 54 60 65 65 64 62 56 55 54 56 58 58 54 51 51 52 50 53 54 56 56 56 56 57 58 58 54 57 45 44 47 50 54 58 63 63 64 63 62 64 65
69 66 69 66 65 62 66 68 65 63 61 62 61 59 58 60 62 63 62 62 59 57 57 59 59 60 60 60 62 57 48 53 59 54 57 61 57 55 59 62 62 67 72
68 70 61 62 56 60 60 69 70 68 68 68 65 71 69 68 66 66 64 64 64 68 69 71 70 72 71 68 66 56 51 50 55 46 62 55 65 61 67 63 64 68 66
65 65 68 72 72 73 69 70 65 68 69 70 71 70 68 70 72 70 71 73 74 75 77 77 79 79 76 68 64 62 62 58 56 63 64 71 70 79 71 78 85 75 84
78 77 72 75 79 72 68 67 71 77 77 75 74 74 71 73 74 74 75 76 77 80 79 79 77 75 75 74 68 68 63 65 74 72 80 81 79 82 85 92 93 91 90
84 79 81 82 80 78 78 80 81 78 76 77 76 79 78 76 75 74 73 77 78 79 81 84 83 80 78 78 79 78 78 80 82 80 81 86 88 91 97 100 97 92 93

GFSMW_250_spd_105.txt.gz
Wind_Speed
70 72 66 61 57 54 52 50 48 39 40 40 36 34 33 31 32 30 27 23 23 22 26 31 48 49 51 54 53 47 44 38 38 39 35 32 35 31 28 24 24 24 21
53 58 66 63 56 54 54 52 45 39 37 41 33 34 34 31 32 31 27 23 26 24 26 35 56 51 51 55 50 47 43 40 39 37 39 31 34 35 31 31 27 27 30
58 56 55 55 55 57 56 52 48 42 36 45 35 33 33 32 30 27 25 24 28 30 26 39 57 59 56 55 48 39 48 46 40 38 41 37 43 34 35 34 34 36 35
61 59 55 54 54 54 54 52 46 42 35 45 36 32 31 31 28 25 24 25 30 34 27 45 59 62 59 56 54 54 51 47 46 46 39 37 34 37 38 40 40 35 37
59 59 55 56 53 55 53 53 47 43 34 42 35 33 29 28 27 25 24 25 30 34 28 52 56 66 57 66 57 55 54 56 53 46 41 41 40 41 46 48 45 45 42
59 49 50 51 54 55 55 53 48 45 33 40 34 34 29 26 27 27 28 28 32 33 28 49 61 58 61 64 60 54 56 60 53 50 48 44 43 40 46 46 39 41 43
50 46 45 48 51 52 49 52 52 45 36 38 35 34 30 25 23 21 24 26 31 30 29 48 58 62 62 62 68 59 60 55 50 57 49 48 52 52 54 54 56 55 52
54 42 43 50 55 57 54 55 53 47 37 37 38 35 33 26 23 18 22 24 28 27 23 43 60 63 64 62 69 66 57 58 49 51 59 57 56 55 57 58 57 60 59
54 44 52 56 61 65 62 59 54 48 39 38 41 37 33 30 25 17 22 23 25 24 18 35 61 63 60 61 62 63 60 61 63 57 52 56 60 63 61 60 62 62 65
53 51 49 55 57 60 54 55 54 46 41 40 43 38 35 31 23 19 22 22 21 20 20 23 54 70 65 58 55 58 61 61 59 58 63 60 64 64 65 64 65 65 62
51 45 46 52 55 55 57 55 55 46 46 43 44 39 36 31 21 19 20 19 18 17 16 19 31 63 65 61 56 52 54 55 57 57 61 62 62 62 63 69 72 70 71
52 49 51 57 52 47 47 50 50 45 49 43 42 39 35 29 22 19 18 18 15 15 13 15 23 43 59 65 68 61 58 56 58 61 61 62 65 68 61 58 59 63 66
51 55 50 38 39 42 45 46 40 46 45 42 43 40 32 28 28 22 21 19 16 15 14 13 20 29 41 43 51 57 53 56 58 61 62 61 62 60 55 60 62 65 67
51 48 34 30 31 33 35 39 42 45 41 43 40 39 33 30 32 27 26 21 21 19 19 15 14 26 31 39 42 44 49 52 56 59 60 59 55 57 59 60 59 59 58
43 28 27 21 29 32 37 39 41 40 39 35 38 37 35 34 33 31 26 24 22 21 18 22 20 18 17 33 38 43 45 46 50 56 58 56 55 54 56 58 61 59 59
38 38 24 36 26 36 39 40 38 40 39 41 41 42 39 38 36 33 29 31 27 25 23 22 25 24 22 22 21 31 40 43 45 46 49 51 53 54 56 56 58 60 60
41 45 50 54 37 39 39 40 39 43 43 44 45 45 42 32 34 34 34 34 32 29 26 23 23 25 28 28 27 25 26 29 37 45 50 53 54 56 57 60 63 66 67
36 42 40 41 38 42 45 46 45 44 44 45 47 41 40 38 40 42 42 40 38 37 34 30 28 27 27 24 24 24 25 29 37 40 42 44 46 49 51 53 54 55 55
44 48 45 43 44 46 47 46 50 47 44 46 50 46 44 45 48 48 47 46 44 42 40 38 37 34 32 33 35 34 37 38 37 37 41 44 49 50 51 54 57 58 60
52 49 51 46 47 48 45 50 53 57 53 52 43 55 53 44 49 53 53 46 46 44 45 43 42 43 45 48 47 46 45 46 48 49 48 48 50 52 54 55 59 57 55
62 56 52 49 53 42 54 60 62 57 58 58 57 56 53 54 56 55 53 50 49 48 49 47 48 50 52 56 59 55 53 53 54 56 54 55 54 57 54 58 58 56 56
71 69 65 66 64 65 58 58 62 61 60 60 61 62 59 56 56 57 56 57 55 55 53 55 56 56 58 59 61 62 60 59 61 61 62 60 59 67 66 65 66 69 61
59 65 71 70 70 67 68 69 65 62 59 59 60 65 62 58 58 59 59 61 60 61 63 63 64 62 61 61 62 65 67 69 72 74 73 70 70 65 63 66 69 74 71
65 62 69 61 67 71 71 72 66 61 65 68 65 63 64 64 65 65 67 70 70 71 70 69 67 65 66 70 72 73 77 79 81 82 81 78 72 69 69 72 72 70 76
67 70 65 71 62 65 72 74 73 73 78 74 71 71 75 75 75 74 73 73 76 78 78 76 75 75 75 76 76 80 83 83 83 85 81 77 73 75 72 72 76 78 78
72 71 73 77 69 67 66 64 68 72 67 73 77 78 79 82 83 84 83 81 81 81 81 81 81 80 83 81 80 81 81 84 84 83 84 86 84 86 87 88 87 87 92

GFSMW_250_spd_111.txt.gz
Wind_Speed
70 71 67 62 63 63 62 62 61 60 60 59 54 56 51 53 55 44 44 43 42 36 34 32 29 28 26 25 28 18 18 19 40 51 45 43 41 35 36 33 29 32 32
74 74 71 69 65 66 66 62 60 60 59 52 48 50 51 51 53 47 44 43 43 37 35 32 29 27 27 24 27 19 22 28 41 39 42 40 39 39 38 34 32 31 31
79 76 74 74 70 70 65 63 61 58 56 57 55 52 50 49 51 48 44 44 42 37 36 32 29 30 28 21 32 27 28 33 43 45 42 48 44 45 42 38 35 38 34
83 85 82 78 76 72 66 60 63 65 59 61 60 56 52 49 50 49 43 42 39 35 36 32 31 33 29 22 38 35 34 36 43 49 43 43 42 41 38 39 34 39 39
82 79 79 79 73 71 65 61 65 65 61 61 62 59 54 50 49 49 44 42 38 34 37 33 33 34 34 27 43 43 49 42 44 48 51 43 49 46 47 44 43 37 39
78 76 77 76 74 72 71 65 61 61 61 62 60 60 56 50 48 49 46 43 38 34 37 34 36 37 35 34 29 55 50 55 46 50 47 54 50 48 50 41 40 43 41
81 80 76 77 73 69 66 59 58 60 61 61 57 59 54 50 47 47 47 42 37 34 35 32 34 37 36 35 32 50 56 57 52 57 50 52 53 49 42 49 56 49 41
77 79 73 66 60 63 55 55 57 60 60 56 54 54 53 52 49 47 46 41 36 33 31 23 30 34 36 35 32 43 62 63 60 56 59 54 51 52 52 54 46 43 48
77 74 65 63 60 51 51 51 56 60 56 56 56 53 53 52 48 47 46 40 37 35 32 28 29 32 34 33 31 42 71 62 61 58 57 51 55 54 58 56 59 59 57
77 65 60 57 58 53 54 55 57 56 58 58 57 53 53 50 45 46 47 40 39 37 32 28 32 32 30 33 30 38 65 66 60 55 57 60 52 54 58 57 52 54 50
64 64 60 62 55 56 57 61 65 59 58 59 54 54 57 54 51 48 47 42 40 40 33 29 29 29 26 27 27 33 60 66 59 61 52 55 68 65 63 65 63 59 59
71 70 70 70 67 63 63 64 63 60 56 54 52 56 55 53 53 52 50 43 42 40 32 29 24 23 23 24 22 26 52 69 60 61 67 56 53 61 70 62 60 63 73
72 73 71 72 67 65 63 63 66 61 57 56 59 59 57 52 42 50 50 45 43 38 33 28 23 19 22 22 20 23 44 64 63 69 61 65 69 60 57 59 61 67 65
74 76 74 66 65 66 68 67 64 60 58 60 63 63 59 51 43 47 46 46 45 39 33 30 26 22 21 19 21 19 31 56 64 65 63 62 65 66 71 71 67 68 67
67 69 67 62 58 58 59 58 57 58 61 58 57 56 52 47 40 41 47 48 46 39 35 32 28 24 22 22 18 20 19 42 60 66 68 68 66 64 64 65 65 66 65
65 68 68 59 51 46 45 49 49 55 52 51 50 48 43 44 41 45 49 51 46 38 35 34 30 27 23 23 24 22 24 24 45 58 62 61 61 62 66 63 64 65 67
54 51 50 49 43 46 48 37 41 41 38 39 39 39 43 44 45 48 50 50 44 36 34 40 34 29 27 26 26 24 26 28 35 40 46 49 54 58 60 62 66 68 70
63 60 55 44 41 37 34 26 27 24 29 26 29 34 39 44 45 46 48 45 39 36 30 32 34 36 33 32 30 26 26 30 32 34 42 47 49 51 52 54 58 63 65
65 64 50 33 34 35 25 16 19 24 21 30 33 35 41 44 45 45 44 43 42 39 35 37 33 33 36 37 36 33 29 30 30 37 41 39 41 43 44 45 48 47 50
43 38 33 42 33 33 36 26 19 25 32 36 41 43 40 33 35 37 37 40 42 43 44 39 40 44 46 44 40 40 38 39 38 38 40 43 46 48 48 48 49 51 54
33 34 48 40 37 30 26 18 25 28 33 36 38 37 31 33 40 42 44 44 45 46 40 47 46 44 47 48 49 48 48 45 43 44 47 50 53 54 56 54 57 61 61
31 57 50 47 44 44 28 26 34 27 26 33 36 38 42 43 45 45 45 48 50 49 56 58 55 54 55 54 53 52 52 51 52 52 54 55 56 58 60 63 63 68 68
41 65 61 52 47 45 46 44 46 50 52 47 40 41 49 44 43 46 46 50 50 52 57 59 61 58 58 57 59 60 57 56 56 58 60 62 64 65 67 68 71 73 75
64 74 68 62 63 52 64 62 50 52 57 59 60 62 52 57 59 51 53 54 56 55 55 59 61 62 62 60 59 61 61 64 62 64 66 69 70 71 72 74 75 77 80
69 80 77 70 71 59 64 61 61 63 56 65 62 60 60 60 62 60 58 58 61 59 59 61 63 61 62 64 65 68 70 71 73 75 75 75 77 78 80 82 84 87 88
72 89 88 85 76 73 73 70 63 62 66 64 63 63 61 61 67 71 72 68 68 65 65 69 70 69 69 68 67 69 68 73 77 79 80 81 83 87 88 88 90 94 98

GFSMW_250_spd_114.txt.gz
Wind_Speed
69 66 64 61 55 53 56 59 58 58 60 62 60 58 57 57 57 50 51 51 48 46 42 41 40 37 35 34 30 27 29 25 25 20 25 49 54 50 43 34 29 31 26
72 71 73 69 62 58 58 60 61 61 63 63 65 60 57 57 54 54 53 53 48 46 41 42 42 37 34 34 30 28 28 31 25 26 24 42 54 45 42 34 33 33 31
71 76 77 71 67 69 69 66 64 65 64 64 67 60 58 58 58 57 57 53 51 48 41 40 44 37 32 33 29 28 29 34 23 25 17 32 49 47 39 39 38 33 33
78 79 78 69 68 72 73 68 70 70 69 68 65 61 61 61 59 61 56 56 50 49 43 40 44 36 31 33 29 29 28 28 23 22 24 35 42 45 39 38 41 37 31
85 84 79 71 68 70 73 70 71 70 68 66 64 62 64 63 61 58 57 55 52 50 43 40 42 37 32 34 30 32 30 33 30 27 32 39 43 44 42 43 44 42 39
85 84 80 70 69 71 70 69 71 68 66 66 63 61 62 60 59 59 60 60 52 50 45 41 41 39 34 35 34 32 31 42 39 34 32 40 41 40 45 47 45 40 39
83 80 79 67 70 70 67 64 64 65 68 67 62 58 59 61 58 57 56 57 50 50 48 41 41 39 34 35 35 36 39 44 49 44 42 36 48 42 44 44 46 50 50
83 83 80 71 66 62 65 63 67 69 70 62 61 57 56 57 54 53 54 53 50 52 49 42 39 37 32 33 34 34 33 41 51 54 46 42 42 45 46 49 50 49 48
80 77 72 70 63 65 62 60 64 64 63 61 55 57 55 57 55 54 50 50 49 51 47 44 38 36 30 30 30 31 34 40 38 66 56 50 47 42 43 54 50 48 48
77 74 70 63 55 60 63 64 62 61 61 56 57 60 55 54 55 54 48 50 49 50 44 44 40 37 34 34 35 34 32 34 39 59 59 56 54 49 44 50 57 47 46
65 63 66 69 70 70 65 67 58 58 56 51 59 60 58 60 57 52 46 48 49 49 44 43 41 38 33 33 34 31 32 31 35 55 62 54 57 53 56 53 51 56 52
76 77 72 73 74 76 72 68 54 64 69 53 56 58 63 62 54 48 45 43 49 53 45 44 42 39 32 32 32 29 29 29 31 54 63 50 59 57 57 56 54 54 52
76 69 71 72 76 77 77 73 67 68 69 68 69 69 66 63 56 49 47 43 44 52 47 44 44 39 32 30 26 27 25 26 26 42 65 55 54 51 59 61 59 60 60
65 59 66 68 64 73 78 76 70 68 70 71 73 71 69 63 60 54 53 48 44 49 46 45 45 39 33 32 27 27 24 22 20 34 69 59 56 53 48 55 54 57 56
53 54 52 57 60 62 66 69 72 73 73 75 70 68 68 66 60 54 54 47 48 47 45 45 45 39 36 30 28 23 25 22 17 27 60 68 57 58 59 56 58 57 57
59 59 65 67 68 67 67 71 76 78 75 68 68 69 65 61 60 58 56 48 46 43 44 45 45 40 37 30 27 23 21 23 19 15 39 66 60 60 58 56 57 59 65
60 69 69 70 69 68 71 69 65 63 60 54 53 56 60 60 60 56 50 43 47 45 46 46 44 40 38 31 30 27 23 20 20 19 20 38 63 63 64 68 64 62 64
55 56 57 60 59 55 47 41 44 44 48 50 56 59 53 51 50 47 46 48 51 46 47 46 42 39 38 35 33 30 28 25 21 21 23 27 36 49 59 66 69 72 70
57 56 57 57 52 48 49 51 49 51 51 55 48 44 45 43 43 41 45 48 46 45 44 42 38 38 31 24 24 31 34 32 30 23 23 26 32 35 41 46 53 58 61
63 60 56 55 55 54 50 50 52 45 35 33 30 27 30 28 34 39 43 46 43 40 41 43 41 36 32 31 31 33 33 33 33 35 33 29 31 34 35 42 47 50 52
67 62 56 55 54 44 42 44 37 33 31 30 27 24 25 31 35 39 39 39 41 40 36 38 40 37 42 44 37 42 42 41 40 40 40 42 41 39 41 44 48 50 54
69 63 61 51 47 38 37 44 40 31 27 33 34 32 31 32 33 34 39 41 36 35 33 39 44 46 47 46 47 51 51 48 48 50 50 48 48 49 51 52 54 55 55
66 64 57 43 37 43 47 46 43 42 36 38 40 35 34 29 34 34 32 37 38 41 40 44 45 48 49 53 50 51 53 51 52 55 56 55 55 56 56 57 59 62 64
43 41 40 39 52 50 54 48 46 38 38 38 41 42 46 44 37 35 34 37 39 45 44 46 48 48 53 54 54 56 54 57 56 57 59 60 58 58 61 65 68 69 71
40 41 40 59 59 56 56 52 57 52 54 49 51 38 44 39 45 45 36 48 48 46 52 51 51 52 56 58 61 62 62 60 61 61 62 62 63 65 68 69 70 73 77
39 41 54 66 64 63 62 56 57 61 59 52 59 60 60 51 54 52 50 52 54 58 55 55 58 58 60 62 64 66 67 66 66 67 68 70 72 76 78 77 79 82 84

GFSMW_250_spd_117.txt.gz
Wind_Speed
75 75 73 71 63 61 57 49 43 48 50 57 56 48 49 52 53 52 57 59 56 53 53 53 45 44 44 40 36 33 32 34 31 30 33 28 26 41 35 42 46 42 32
79 78 76 73 72 66 61 56 55 51 50 53 55 53 53 54 60 57 57 57 56 57 54 55 49 44 43 41 37 32 31 34 31 29 32 29 25 29 42 49 50 43 33
80 80 78 74 77 71 62 59 61 60 54 56 59 57 54 55 60 59 56 54 53 58 56 57 51 43 41 41 37 31 31 32 31 31 32 34 28 31 47 49 54 42 33
77 78 79 77 72 72 63 59 58 57 56 57 55 55 56 60 62 59 57 54 56 57 56 55 52 47 41 42 38 31 31 29 29 30 31 31 28 27 39 48 49 42 33
80 81 81 75 74 72 65 62 62 57 58 57 56 54 58 65 64 58 57 55 54 55 54 56 56 46 42 43 41 33 33 32 28 27 32 30 28 26 36 45 45 42 37
87 86 87 80 75 72 67 63 63 58 59 59 57 60 60 60 60 59 59 55 54 56 53 53 55 48 40 43 42 34 35 33 30 32 35 35 30 29 35 43 46 45 43
89 89 90 83 72 69 66 67 65 66 64 60 60 59 55 57 58 61 57 55 56 55 52 51 54 48 43 44 43 34 35 33 32 34 34 36 37 35 38 40 47 46 45
87 91 87 76 71 74 72 69 70 70 63 66 62 60 57 60 61 60 53 54 53 54 52 55 55 47 42 45 44 35 35 34 32 32 43 36 42 38 43 44 45 46 46
79 81 80 76 79 77 68 72 68 65 69 70 60 57 57 56 59 54 52 52 53 55 51 55 58 44 40 44 42 35 34 32 30 31 36 42 48 46 47 45 46 45 47
75 75 75 74 72 68 70 66 63 62 67 67 59 56 53 54 54 53 51 52 52 52 53 56 58 44 39 44 41 37 35 34 36 34 34 40 52 53 48 54 49 47 48
66 67 70 77 78 68 66 67 64 63 60 57 51 52 55 56 49 49 48 51 54 55 57 58 54 45 41 42 39 37 36 35 37 35 32 40 48 57 53 52 49 52 48
59 64 72 75 77 69 68 67 66 67 67 63 58 54 53 57 50 51 50 50 53 56 57 53 51 43 41 42 40 36 35 37 37 36 35 35 45 58 58 55 57 51 51
56 60 65 69 74 77 79 64 61 57 58 58 62 64 64 60 55 62 60 53 54 61 59 51 49 45 43 45 41 36 35 34 33 32 32 31 36 49 62 59 57 60 53
44 49 55 59 70 70 69 64 61 62 64 66 71 70 70 63 64 67 66 64 62 67 61 54 51 46 42 42 39 36 33 33 29 29 28 27 31 45 61 55 54 60 63
49 47 49 54 59 63 66 69 70 72 73 72 74 74 67 71 65 69 67 66 66 69 58 55 53 44 39 40 37 38 34 34 33 26 25 24 27 50 57 59 56 46 47
53 52 53 57 53 59 69 72 74 76 74 74 73 74 73 74 72 73 71 74 73 72 64 56 51 45 40 41 38 38 34 30 27 23 21 20 24 45 51 52 56 54 47
49 55 56 55 54 58 60 63 57 56 59 61 59 61 65 70 74 75 77 79 77 67 59 58 55 46 42 43 41 41 37 33 26 22 20 21 20 31 48 55 55 56 53
46 50 50 49 48 55 55 56 59 61 63 63 63 64 68 72 78 82 82 75 64 58 57 55 55 43 45 45 44 42 37 34 30 25 22 24 21 22 33 47 57 58 58
50 52 51 50 53 53 57 61 64 67 66 66 64 62 62 65 61 63 64 61 61 58 54 51 50 46 48 48 45 41 39 39 34 29 27 26 23 24 25 32 58 58 63
57 54 53 52 53 52 53 58 59 55 54 50 52 54 59 64 63 58 59 55 54 51 45 52 49 49 49 49 43 40 38 35 30 32 35 34 32 24 23 26 30 32 37
64 62 62 60 58 54 52 47 42 43 44 52 58 60 62 62 59 48 40 41 43 43 49 50 52 49 48 44 39 37 35 37 32 33 37 38 37 35 36 36 35 36 38
73 71 69 67 65 61 52 46 40 46 49 55 53 47 52 47 41 31 31 31 33 35 40 43 41 39 39 40 39 39 38 47 46 42 40 41 41 41 42 43 44 44 46
77 75 75 72 69 63 56 48 47 44 41 38 36 37 36 30 24 21 22 25 29 34 39 40 41 44 46 40 40 46 46 48 46 48 48 48 50 49 48 48 50 53 55
61 65 67 66 63 56 51 48 43 36 37 38 40 38 33 30 28 24 25 29 31 34 34 42 44 44 44 37 40 51 51 53 51 53 54 53 53 53 55 56 58 59 62
50 51 52 49 44 41 40 40 36 45 45 40 42 39 37 36 30 30 33 39 44 42 47 34 36 43 44 41 43 49 50 51 52 53 56 59 60 63 59 61 64 64 63
41 41 41 40 38 37 38 39 46 55 51 44 45 46 48 47 39 42 40 43 43 45 46 41 42 46 45 47 49 51 53 54 56 57 58 58 62 66 69 68 69 68 69

GFSMW_250_spd_123.txt.gz
Wind_Speed
98 96 92 89 83 78 79 78 73 72 69 67 61 61 60 59 58 54 52 47 46 45 43 44 44 44 45 47 47 49 49 46 40 39 34 34 31 32 29 30 28 26 27
99 97 95 92 88 80 79 80 77 75 72 70 65 64 62 59 58 53 48 49 44 45 44 47 46 45 47 49 49 48 47 47 40 40 36 34 33 31 30 26 28 28 29
101 99 99 97 91 83 73 78 80 79 77 72 67 63 61 58 54 49 51 48 49 48 47 47 45 48 50 50 51 48 46 45 42 42 40 31 33 31 30 28 28 33 31
101 100 98 96 90 82 74 70 77 77 77 73 66 62 59 58 58 55 56 56 52 50 50 49 48 50 50 52 50 49 48 46 39 43 41 29 32 33 31 28 27 30 34
94 94 94 92 87 80 72 65 71 78 78 74 69 63 60 54 50 59 66 61 58 57 51 47 46 51 51 52 51 51 49 45 42 41 41 31 28 34 31 32 27 28 33
95 89 89 88 83 77 70 64 71 78 80 77 73 66 52 51 60 67 64 65 63 56 53 47 49 52 54 53 50 52 49 45 42 43 40 32 28 33 32 32 30 29 36
88 85 84 81 78 73 69 68 69 77 77 77 73 69 68 67 70 72 70 66 65 61 55 48 47 51 53 52 52 52 49 44 44 45 40 35 29 32 34 31 33 33 34
74 74 74 74 75 72 68 71 74 76 78 80 80 77 75 78 76 75 73 71 66 62 58 58 56 57 55 53 52 50 45 44 44 44 38 34 29 31 37 33 33 35 33
67 70 71 70 72 72 74 76 77 77 76 78 77 77 76 78 79 78 76 71 67 64 56 53 55 56 52 52 52 50 43 39 41 37 33 33 30 32 34 28 27 33 32
70 71 68 66 70 74 76 78 80 80 79 78 78 76 75 74 75 75 72 71 69 67 63 61 57 53 53 50 53 48 40 42 42 38 31 32 32 33 35 31 28 32 34
67 65 65 70 72 73 77 78 81 84 85 85 84 82 80 77 79 78 73 72 70 68 64 58 57 55 51 50 47 47 41 44 43 46 42 33 33 34 37 34 30 31 36
60 64 61 65 68 76 82 80 84 83 84 87 86 86 84 82 81 79 74 71 70 68 60 54 57 53 51 43 46 47 48 49 44 48 48 35 34 34 38 38 34 35 34
51 56 61 66 69 74 81 84 86 83 82 84 84 82 82 82 80 81 79 74 71 70 64 61 60 53 50 48 47 50 52 52 49 50 49 40 38 34 38 38 36 34 36
39 50 58 62 66 71 75 76 76 77 76 80 83 82 78 72 70 71 69 68 66 64 63 64 68 62 57 57 52 51 51 52 54 53 50 44 39 37 38 37 33 35 35
33 36 43 55 61 62 64 65 67 69 69 71 70 69 74 73 71 70 66 65 62 65 68 66 71 62 55 55 55 54 54 52 55 54 54 46 38 40 39 40 39 38 39
47 36 40 45 49 53 56 60 63 64 64 64 65 64 67 66 67 73 73 61 58 60 61 61 66 63 56 60 60 55 56 59 55 57 56 51 40 41 40 40 38 37 38
60 51 50 43 42 43 45 46 47 48 49 51 54 59 61 66 68 67 66 69 67 64 61 58 57 57 61 62 58 60 62 63 64 56 56 52 42 42 41 40 33 34 35
59 51 46 47 48 48 47 46 42 40 40 41 44 50 52 54 56 62 67 65 62 59 59 60 60 62 65 66 65 68 64 62 60 57 58 56 42 44 43 40 34 32 33
61 56 50 47 47 47 47 48 52 51 48 48 49 47 42 44 53 57 65 64 67 65 67 69 67 67 70 70 63 60 60 62 62 55 59 48 42 45 45 42 35 33 33
59 54 50 48 49 50 51 55 56 54 54 52 48 49 47 49 51 50 63 69 66 67 66 69 72 69 69 66 64 62 64 65 63 55 47 46 44 48 50 45 40 36 34
61 59 58 59 59 60 59 59 57 52 50 51 49 49 52 53 54 53 61 70 69 68 69 67 66 69 68 67 65 68 58 54 47 45 45 46 45 51 53 49 45 42 40
62 63 64 64 58 56 56 55 54 50 49 52 54 54 53 53 56 57 55 57 60 61 63 67 68 68 64 66 54 47 52 54 58 51 50 51 51 53 55 54 50 48 44
65 64 64 62 59 56 55 57 56 56 56 56 57 56 55 54 55 53 57 55 59 65 68 71 69 66 49 46 53 53 46 48 48 53 56 51 50 54 57 56 54 52 53
71 71 70 69 66 62 58 54 54 56 56 58 59 59 58 55 54 52 53 53 54 56 57 60 59 50 49 56 52 58 53 52 46 44 46 47 50 54 57 55 53 52 53
67 71 73 73 72 70 66 61 59 56 55 58 60 63 64 65 66 63 62 59 60 60 60 54 53 57 56 65 71 71 59 51 44 46 47 48 52 55 59 59 59 57 58
63 63 64 62 60 59 57 55 53 51 51 53 58 61 65 66 70 67 66 61 57 58 56 47 47 45 50 67 67 55 44 45 42 44 50 51 55 59 63 66 66 63 58